BGA12FR LKPR-EDDH

Flight info

Callsign BGA12FR
Flight time 0h 54m
Altitude 30000
Route VENOX DCT DEKOV Y621 ESLOR M748 BOLBO DCT SOGMA M748 RARUP RARUP3P
Aircraft A3ST/H-SDFGHIRWY/LB1

Departure

Time 2026-04-22 20:20
Airport Václav Havel Airport Prague (LKPR)

Arrival

Time 2026-04-22 21:14
Airport Hamburg Helmut Schmidt Airport (EDDH)
Time Latitude Longitude Altitude Speed Heading
2026-04-22 19:16 50.11373 14.27852 1176 ft 0 kts 155°
2026-04-22 20:02 50.11380 14.27847 1180 ft 2 kts 154°
2026-04-22 20:02 50.11395 14.27837 1174 ft 2 kts 158°
2026-04-22 20:03 50.11408 14.27829 1175 ft 2 kts 162°
2026-04-22 20:03 50.11422 14.27817 1174 ft 2 kts 127°
2026-04-22 20:03 50.11435 14.27799 1174 ft 3 kts 160°
2026-04-22 20:03 50.11446 14.27806 1174 ft 0 kts 245°
2026-04-22 20:04 50.11446 14.27805 1174 ft 0 kts 245°
2026-04-22 20:09 50.11446 14.27804 1174 ft 1 kts 245°
2026-04-22 20:09 50.11420 14.27719 1174 ft 17 kts 245°
2026-04-22 20:09 50.11386 14.27608 1173 ft 5 kts 245°
2026-04-22 20:09 50.11363 14.27530 1172 ft 11 kts 245°
2026-04-22 20:10 50.11326 14.27400 1176 ft 15 kts 245°
2026-04-22 20:10 50.11299 14.27308 1173 ft 2 kts 245°
2026-04-22 20:10 50.11283 14.27257 1174 ft 9 kts 245°
2026-04-22 20:10 50.11247 14.27137 1173 ft 15 kts 244°
2026-04-22 20:11 50.11194 14.26963 1171 ft 20 kts 244°
2026-04-22 20:11 50.11126 14.26738 1167 ft 24 kts 245°
2026-04-22 20:11 50.11075 14.26507 1163 ft 22 kts 269°
2026-04-22 20:11 50.11084 14.26368 1157 ft 11 kts 277°
2026-04-22 20:12 50.11062 14.26279 1157 ft 10 kts 227°
2026-04-22 20:12 50.11005 14.26213 1158 ft 12 kts 214°
2026-04-22 20:12 50.10928 14.26131 1160 ft 15 kts 214°
2026-04-22 20:12 50.10845 14.26044 1166 ft 14 kts 213°
2026-04-22 20:13 50.10763 14.25956 1169 ft 15 kts 214°
2026-04-22 20:13 50.10679 14.25868 1176 ft 14 kts 214°
2026-04-22 20:13 50.10605 14.25798 1182 ft 5 kts 191°
2026-04-22 20:13 50.10576 14.25818 1185 ft 7 kts 142°
2026-04-22 20:14 50.10535 14.25902 1188 ft 12 kts 125°
2026-04-22 20:14 50.10477 14.26028 1193 ft 16 kts 126°
2026-04-22 20:14 50.10398 14.26191 1197 ft 22 kts 127°
2026-04-22 20:14 50.10302 14.26388 1202 ft 25 kts 127°
2026-04-22 20:15 50.10209 14.26580 1207 ft 16 kts 127°
2026-04-22 20:15 50.10130 14.26741 1210 ft 21 kts 127°
2026-04-22 20:15 50.10035 14.26937 1212 ft 25 kts 127°
2026-04-22 20:15 50.09938 14.27139 1213 ft 19 kts 127°
2026-04-22 20:16 50.09845 14.27323 1212 ft 24 kts 134°
2026-04-22 20:16 50.09748 14.27474 1211 ft 4 kts 135°
2026-04-22 20:16 50.09716 14.27524 1211 ft 10 kts 135°
2026-04-22 20:16 50.09655 14.27617 1212 ft 14 kts 135°
2026-04-22 20:17 50.09580 14.27733 1215 ft 17 kts 135°
2026-04-22 20:17 50.09499 14.27857 1218 ft 14 kts 135°
2026-04-22 20:17 50.09435 14.27956 1219 ft 12 kts 135°
2026-04-22 20:17 50.09367 14.28059 1219 ft 16 kts 135°
2026-04-22 20:18 50.09278 14.28194 1218 ft 17 kts 135°
2026-04-22 20:18 50.09193 14.28279 1215 ft 12 kts 170°
2026-04-22 20:18 50.09144 14.28258 1215 ft 0 kts 207°
2026-04-22 20:18 50.09140 14.28254 1215 ft 3 kts 210°
2026-04-22 20:19 50.09101 14.28183 1214 ft 13 kts 257°
2026-04-22 20:19 50.09135 14.27990 1215 ft 24 kts 307°
2026-04-22 20:19 50.09273 14.27699 1217 ft 53 kts 305°
2026-04-22 20:19 50.09670 14.26874 1212 ft 137 kts 307°
2026-04-22 20:20 50.10391 14.25418 1505 ft 195 kts 303°
2026-04-22 20:20 50.11295 14.23589 2349 ft 224 kts 302°
2026-04-22 20:20 50.12250 14.21588 3603 ft 240 kts 302°
2026-04-22 20:20 50.13304 14.19354 4427 ft 273 kts 302°
2026-04-22 20:21 50.14501 14.16837 5026 ft 296 kts 303°
2026-04-22 20:21 50.15723 14.14311 6161 ft 286 kts 303°
2026-04-22 20:21 50.16897 14.11887 7392 ft 276 kts 303°
2026-04-22 20:21 50.18047 14.09499 8448 ft 276 kts 303°
2026-04-22 20:22 50.19202 14.07092 9405 ft 279 kts 303°
2026-04-22 20:22 50.20373 14.04646 10277 ft 285 kts 303°
2026-04-22 20:22 50.21602 14.02068 10738 ft 307 kts 303°
2026-04-22 20:22 50.22924 13.99349 11319 ft 322 kts 309°
2026-04-22 20:23 50.24794 13.97344 12105 ft 336 kts 336°
2026-04-22 20:23 50.27109 13.96810 12949 ft 346 kts
2026-04-22 20:23 50.29546 13.97241 13787 ft 351 kts
2026-04-22 20:23 50.31956 13.97612 14597 ft 355 kts
2026-04-22 20:24 50.34443 13.97775 15391 ft 358 kts 360°
2026-04-22 20:24 50.36891 13.98431 16069 ft 350 kts 21°
2026-04-22 20:24 50.38840 14.00533 17275 ft 324 kts 43°
2026-04-22 20:24 50.40378 14.03052 18153 ft 314 kts 49°
2026-04-22 20:25 50.41739 14.05655 18923 ft 303 kts 51°
2026-04-22 20:25 50.43035 14.08184 19697 ft 292 kts 51°
2026-04-22 20:25 50.44282 14.10611 20467 ft 280 kts 51°
2026-04-22 20:25 50.45482 14.12940 21234 ft 269 kts 51°
2026-04-22 20:26 50.46676 14.15149 21851 ft 265 kts 50°
2026-04-22 20:26 50.48112 14.16987 22164 ft 272 kts 26°
2026-04-22 20:26 50.49881 14.18275 22358 ft 289 kts 22°
2026-04-22 20:26 50.51806 14.19457 22522 ft 306 kts 17°
2026-04-22 20:27 50.53917 14.20295 22738 ft 320 kts
2026-04-22 20:27 50.56171 14.20454 23026 ft 327 kts 349°
2026-04-22 20:27 50.58262 14.19380 23787 ft 314 kts 332°
2026-04-22 20:27 50.60210 14.17953 24658 ft 305 kts 334°
2026-04-22 20:28 50.61112 14.17376 24955 ft 305 kts 337°
2026-04-22 20:28 50.62149 14.16834 25190 ft 308 kts 342°
2026-04-22 20:28 50.64285 14.16165 25467 ft 320 kts 352°
2026-04-22 20:28 50.66549 14.16026 25715 ft 331 kts 360°
2026-04-22 20:29 50.68884 14.16301 25962 ft 342 kts
2026-04-22 20:29 50.71273 14.16833 26211 ft 352 kts
2026-04-22 20:29 50.73708 14.17547 26462 ft 360 kts 10°
2026-04-22 20:29 50.76189 14.18316 26709 ft 367 kts
2026-04-22 20:30 50.78735 14.19010 26966 ft 375 kts
2026-04-22 20:30 50.81335 14.19660 27208 ft 381 kts
2026-04-22 20:30 50.83987 14.20288 27443 ft 388 kts
2026-04-22 20:30 50.86669 14.20915 27693 ft 393 kts
2026-04-22 20:31 50.89398 14.21470 27949 ft 396 kts
2026-04-22 20:31 50.92131 14.21408 28187 ft 400 kts 354°
2026-04-22 20:31 50.94905 14.20944 28447 ft 402 kts 351°
2026-04-22 20:31 50.97690 14.20279 28687 ft 405 kts 349°
2026-04-22 20:32 51.00489 14.19543 28939 ft 409 kts 349°
2026-04-22 20:32 51.03303 14.18809 29180 ft 411 kts 349°
2026-04-22 20:32 51.06131 14.17991 29434 ft 412 kts 342°
2026-04-22 20:32 51.08695 14.16089 29692 ft 410 kts 324°
2026-04-22 20:33 51.10957 14.13324 29923 ft 404 kts 316°
2026-04-22 20:33 51.15063 14.07013 29991 ft 418 kts 313°
2026-04-22 20:33 51.17116 14.03800 29998 ft 403 kts 314°
2026-04-22 20:34 51.19114 14.00787 30001 ft 393 kts 315°
2026-04-22 20:34 51.23209 13.94875 29997 ft 400 kts 316°
2026-04-22 20:35 51.27398 13.89015 29998 ft 400 kts 317°
2026-04-22 20:35 51.31567 13.83208 29999 ft 400 kts 317°
2026-04-22 20:36 51.35751 13.77351 29997 ft 400 kts 316°
2026-04-22 20:36 51.39934 13.71469 29998 ft 400 kts 316°
2026-04-22 20:37 51.44110 13.65578 29999 ft 399 kts 316°
2026-04-22 20:37 51.48278 13.59686 29996 ft 400 kts 316°
2026-04-22 20:38 51.52421 13.53819 29997 ft 400 kts 316°
2026-04-22 20:38 51.56588 13.47904 29998 ft 399 kts 316°
2026-04-22 20:39 51.60753 13.41978 29994 ft 400 kts 316°
2026-04-22 20:39 51.64916 13.36038 29999 ft 400 kts 316°
2026-04-22 20:40 51.69069 13.30092 29998 ft 400 kts 316°
2026-04-22 20:40 51.73226 13.24120 29998 ft 399 kts 316°
2026-04-22 20:41 51.77376 13.18143 30000 ft 399 kts 316°
2026-04-22 20:41 51.81516 13.12166 29998 ft 399 kts 316°
2026-04-22 20:42 51.85660 13.06171 29998 ft 399 kts 316°
2026-04-22 20:42 51.89770 13.00211 29999 ft 399 kts 316°
2026-04-22 20:43 51.93903 12.94202 29997 ft 399 kts 316°
2026-04-22 20:43 51.98035 12.88178 29998 ft 399 kts 316°
2026-04-22 20:44 52.02202 12.82214 29996 ft 400 kts 317°
2026-04-22 20:44 52.06313 12.76112 29999 ft 399 kts 315°
2026-04-22 20:45 52.10413 12.70007 29996 ft 400 kts 315°
2026-04-22 20:45 52.14515 12.63973 29998 ft 399 kts 316°
2026-04-22 20:46 52.20695 12.54862 29998 ft 399 kts 315°
2026-04-22 20:46 52.24810 12.48763 29998 ft 399 kts 315°
2026-04-22 20:47 52.28921 12.42652 29998 ft 399 kts 315°
2026-04-22 20:47 52.33020 12.36542 29997 ft 399 kts 315°
2026-04-22 20:48 52.36995 12.30602 29999 ft 399 kts 315°
2026-04-22 20:48 52.40478 12.25386 29999 ft 399 kts 315°
2026-04-22 20:49 52.44570 12.19241 29994 ft 399 kts 315°
2026-04-22 20:49 52.48662 12.13082 29995 ft 399 kts 315°
2026-04-22 20:50 52.52714 12.06964 29998 ft 399 kts 315°
2026-04-22 20:50 52.56801 12.00780 30000 ft 399 kts 315°
2026-04-22 20:51 52.60880 11.94590 29998 ft 399 kts 315°
2026-04-22 20:51 52.65085 11.88618 29996 ft 400 kts 320°
2026-04-22 20:52 52.69505 11.83040 30002 ft 399 kts 320°
2026-04-22 20:52 52.71671 11.80322 29802 ft 385 kts 320°
2026-04-22 20:52 52.73782 11.77668 29439 ft 376 kts 320°
2026-04-22 20:53 52.75843 11.75072 29075 ft 369 kts 320°
2026-04-22 20:53 52.77861 11.72524 28707 ft 362 kts 320°
2026-04-22 20:53 52.79844 11.70017 28328 ft 355 kts 320°
2026-04-22 20:53 52.81785 11.67560 27958 ft 349 kts 320°
2026-04-22 20:54 52.83696 11.65137 27593 ft 343 kts 320°
2026-04-22 20:54 52.85571 11.62758 27211 ft 337 kts 320°
2026-04-22 20:54 52.87403 11.60431 26752 ft 335 kts 320°
2026-04-22 20:54 52.89249 11.58081 26244 ft 335 kts 320°
2026-04-22 20:55 52.91094 11.55732 25758 ft 334 kts 320°
2026-04-22 20:55 52.92936 11.53383 25239 ft 333 kts 320°
2026-04-22 20:55 52.94764 11.51051 24803 ft 330 kts 320°
2026-04-22 20:55 52.96580 11.48731 24287 ft 329 kts 320°
2026-04-22 20:56 52.98396 11.46409 23776 ft 329 kts 320°
2026-04-22 20:56 53.00217 11.44078 23152 ft 333 kts 320°
2026-04-22 20:56 53.02064 11.41707 22517 ft 337 kts 320°
2026-04-22 20:56 53.03933 11.39306 21882 ft 341 kts 320°
2026-04-22 20:57 53.05816 11.36888 21205 ft 343 kts 320°
2026-04-22 20:57 53.07703 11.34464 20535 ft 343 kts 320°
2026-04-22 20:57 53.09593 11.32031 19855 ft 343 kts 320°
2026-04-22 20:57 53.11487 11.29593 19185 ft 343 kts 319°
2026-04-22 20:58 53.13353 11.27187 18510 ft 342 kts 319°
2026-04-22 20:58 53.15232 11.24761 17829 ft 341 kts 319°
2026-04-22 20:58 53.17104 11.22341 17165 ft 340 kts 319°
2026-04-22 20:58 53.18998 11.19978 16482 ft 338 kts 319°
2026-04-22 20:59 53.20812 11.17497 15804 ft 336 kts 317°
2026-04-22 20:59 53.22633 11.15069 15127 ft 334 kts 319°
2026-04-22 20:59 53.24469 11.12714 14457 ft 332 kts 319°
2026-04-22 20:59 53.26295 11.10372 13775 ft 330 kts 319°
2026-04-22 21:00 53.28106 11.08035 13106 ft 328 kts 319°
2026-04-22 21:00 53.29905 11.05703 12429 ft 326 kts 319°
2026-04-22 21:00 53.31686 11.03385 11753 ft 323 kts 319°
2026-04-22 21:00 53.33436 11.01096 11085 ft 316 kts 319°
2026-04-22 21:01 53.35168 10.98833 10450 ft 314 kts 319°
2026-04-22 21:01 53.36839 10.96652 10087 ft 303 kts 319°
2026-04-22 21:01 53.38475 10.94518 10007 ft 283 kts 318°
2026-04-22 21:01 53.39975 10.92558 9954 ft 265 kts 318°
2026-04-22 21:02 53.41366 10.90736 9838 ft 252 kts 317°
2026-04-22 21:02 53.42759 10.88897 9475 ft 258 kts 317°
2026-04-22 21:02 53.44170 10.87034 9069 ft 257 kts 317°
2026-04-22 21:02 53.45574 10.85183 8698 ft 255 kts 317°
2026-04-22 21:03 53.46969 10.83345 8316 ft 253 kts 317°
2026-04-22 21:03 53.48349 10.81525 7945 ft 251 kts 317°
2026-04-22 21:03 53.49721 10.79715 7574 ft 250 kts 317°
2026-04-22 21:03 53.51084 10.77915 7195 ft 248 kts 317°
2026-04-22 21:04 53.52442 10.76123 6820 ft 247 kts 317°
2026-04-22 21:04 53.53790 10.74342 6456 ft 245 kts 317°
2026-04-22 21:04 53.55127 10.72575 6091 ft 244 kts 317°
2026-04-22 21:04 53.56456 10.70815 5724 ft 243 kts 317°
2026-04-22 21:05 53.57780 10.69059 5354 ft 242 kts 317°
2026-04-22 21:05 53.59085 10.67328 5013 ft 240 kts 317°
2026-04-22 21:05 53.60381 10.65609 4929 ft 239 kts 317°
2026-04-22 21:05 53.61714 10.63831 4917 ft 249 kts 317°
2026-04-22 21:06 53.63069 10.61969 4915 ft 254 kts 313°
2026-04-22 21:06 53.64263 10.59770 4917 ft 255 kts 305°
2026-04-22 21:06 53.65369 10.57410 4913 ft 257 kts 301°
2026-04-22 21:06 53.66383 10.54910 4915 ft 259 kts 299°
2026-04-22 21:07 53.67380 10.52365 4913 ft 261 kts 299°
2026-04-22 21:07 53.68382 10.49792 4917 ft 263 kts 299°
2026-04-22 21:07 53.69390 10.47199 4916 ft 265 kts 299°
2026-04-22 21:07 53.70399 10.44594 4917 ft 266 kts 299°
2026-04-22 21:08 53.71417 10.41971 4912 ft 262 kts 299°
2026-04-22 21:08 53.72383 10.39501 4860 ft 244 kts 299°
2026-04-22 21:08 53.73305 10.37165 4591 ft 236 kts 299°
2026-04-22 21:08 53.74215 10.34869 4251 ft 233 kts 299°
2026-04-22 21:09 53.75057 10.32749 3932 ft 231 kts 299°
2026-04-22 21:09 53.75999 10.30368 3547 ft 228 kts 297°
2026-04-22 21:09 53.76494 10.27926 3200 ft 217 kts 270°
2026-04-22 21:09 53.76424 10.25427 2947 ft 208 kts 260°
2026-04-22 21:10 53.76229 10.23099 2920 ft 193 kts 253°
2026-04-22 21:10 53.75581 10.21203 2921 ft 186 kts 225°
2026-04-22 21:10 53.74598 10.19791 2918 ft 186 kts 218°
2026-04-22 21:10 53.73558 10.18475 2836 ft 187 kts 217°
2026-04-22 21:11 53.72540 10.17155 2703 ft 187 kts 219°
2026-04-22 21:11 53.71526 10.15786 2483 ft 186 kts 221°
2026-04-22 21:11 53.70659 10.14175 2258 ft 185 kts 229°
2026-04-22 21:11 53.69820 10.12523 2040 ft 186 kts 229°
2026-04-22 21:12 53.68999 10.10910 1783 ft 174 kts 229°
2026-04-22 21:12 53.68246 10.09422 1535 ft 159 kts 229°
2026-04-22 21:12 53.67547 10.08031 1221 ft 154 kts 230°
2026-04-22 21:12 53.66895 10.06667 1061 ft 145 kts 231°
2026-04-22 21:13 53.66282 10.05333 822 ft 143 kts 230°
2026-04-22 21:13 53.65638 10.04024 561 ft 146 kts 230°
2026-04-22 21:13 53.64993 10.02752 333 ft 139 kts 229°
2026-04-22 21:13 53.64368 10.01499 200 ft 138 kts 229°
2026-04-22 21:14 53.63779 10.00312 110 ft 129 kts 230°
2026-04-22 21:14 53.63210 9.99150 60 ft 131 kts 230°
2026-04-22 21:14 53.62660 9.98048 45 ft 90 kts 230°
2026-04-22 21:14 53.62497 9.97723 40 ft 1 kts 229°
2026-04-22 21:15 53.62445 9.97620 44 ft 21 kts 229°
2026-04-22 21:15 53.62329 9.97394 42 ft 25 kts 231°
2026-04-22 21:15 53.62223 9.97174 41 ft 23 kts 231°
2026-04-22 21:15 53.62126 9.96974 39 ft 22 kts 230°
2026-04-22 21:16 53.62031 9.96783 41 ft 21 kts 230°
2026-04-22 21:16 53.61942 9.96603 38 ft 19 kts 229°
2026-04-22 21:16 53.61856 9.96456 38 ft 16 kts 212°
2026-04-22 21:16 53.61775 9.96422 40 ft 8 kts 186°
2026-04-22 21:17 53.61717 9.96429 37 ft 8 kts 161°
2026-04-22 21:17 53.61674 9.96483 40 ft 7 kts 120°
2026-04-22 21:17 53.61679 9.96562 39 ft 7 kts 64°
2026-04-22 21:17 53.61708 9.96629 39 ft 7 kts 52°
2026-04-22 21:18 53.61750 9.96719 38 ft 17 kts 51°
2026-04-22 21:18 53.61855 9.96932 41 ft 29 kts 50°
2026-04-22 21:18 53.61998 9.97220 40 ft 29 kts 50°
2026-04-22 21:18 53.62121 9.97470 44 ft 26 kts 49°
2026-04-22 21:19 53.62250 9.97729 41 ft 29 kts 50°
2026-04-22 21:19 53.62382 9.97992 42 ft 29 kts 50°
2026-04-22 21:19 53.62514 9.98207 43 ft 25 kts 44°
2026-04-22 21:19 53.62626 9.98425 42 ft 25 kts 50°
2026-04-22 21:20 53.62736 9.98646 42 ft 25 kts 50°
2026-04-22 21:20 53.62828 9.98838 43 ft 11 kts 59°
2026-04-22 21:20 53.62819 9.98937 44 ft 8 kts 144°
2026-04-22 21:20 53.62783 9.98975 42 ft 0 kts 148°
2026-04-22 21:21 53.62775 9.98983 45 ft 2 kts 149°
2026-04-22 21:21 53.62758 9.99003 44 ft 3 kts 136°
2026-04-22 21:21 53.62755 9.99027 42 ft 4 kts 99°
2026-04-22 21:21 53.62765 9.99085 44 ft 6 kts 60°
2026-04-22 21:22 53.62770 9.99099 45 ft 0 kts 59°